NIMBUS 2 DEB, 25614

Orbit data source: Space-Track

NIMBUS 2 DEB, 25614 is space debris in SSO originally from a launch on Sun, 15 May 1966 UTC launched from the Air Force Western Test Range (AFWTR). Debris objects in space refer to the collection of defunct objects orbiting the Earth. Examples of debris include non-operational satellites, rocket bodies, and fragments generated from explosions, collisions, or faulty payload assembly.

Loading next visibility...
Identifier
25614, 1966-040G
Orbit
SSO
Country
Flag of USUS
Related business
Manufacturer
Unknown
Mission
Spacecraft
Bus & Motor
Unknown
Mass
Unknown
Launch date (UTC)
1966-05-15 (59 years ago)
Launch vehicle
Unknown
Launch site
Air Force Western Test Range (AFWTR)
Object type
Payload
Rocket body
Debris
Shape & HBR
Unknown shape, 0.1 m
Radar Cross Section
Small (<0.1 m²)

Expand to show TLE details & history
Last TLE update: 20 hours ago

TLE from 20 hours ago
0 NIMBUS 2 DEB
1 25614U 66040G   25290.27650757  .00002532  00000-0  33287-2 0  9998
2 25614 100.5095  97.6036 0056545 323.3031 163.8151 13.61759354436777
Epoch: 2025-10-17T06:38Z
TLE epoch observation values (Epoch: 2025-10-17T06:38:10.254Z)
Latitude
51.55655°
Longitude
165.48057°
Altitude
1,077.75 km
Speed
7.298 km/s
True Right ascension
19h 24m 11s
True Declination
51° 23' 46"
Sunlit
Object was in daylight at epoch
Visualization orbit readout
Latitude
Unknown
Longitude
Unknown
Altitude
Unknown
Speed
Unknown
Apparent Right ascension
Unknown
Apparent Declination
Unknown
Sunlit
N/A
Visualization observer readout
Local Sidereal Time
20:59:39
Azimuth
Unknown
Elevation
Unknown
Doppler factor
Unknown
Orbital elements
Apogee altitude
1,068.504 km
Perigee altitude
984.764 km
Semi-major axis
7,404.771 km
Eccentricity
0.00565
Inclination
100.5095°
RAAN
97.6036°
Arg. of periapsis
323.3031°
True anomaly
163.99449°
Mean anomaly
163.8151°
Eccentric anomaly
163.90492°
Mean motion
3.40624 °/min
Orbital period
105.69 mins
BSTAR
0.0033287
Loading maneuver chart data...
Computing Atmospheric mass density...
Loading historical data...
Loading historical data...
Loading historical data...
Loading historical data...
Loading historical data...
Loading historical data...
Loading historical data...

Documentation

Showing up to 5 results
|